Date,TemperatureHighF,TemperatureAvgF,TemperatureLowF,DewpointHighF,DewpointAvgF,DewpointLowF,HumidityHigh,HumidityAvg,HumidityLow,PressureMaxIn,PressureMinIn,WindSpeedMaxMPH,WindSpeedAvgMPH,GustSpeedMaxMPH,PrecipitationSumIn
2013-1-1,36.1,29.9,18.9,26.1,18.7,6.2,76,63,52,29.91,29.71,12,5,23,0.00
2013-1-2,29.6,18.5,8.6,16.5,8.4,1.1,81,65,54,30.09,29.89,8,3,17,0.00
2013-1-3,24.4,13.4,3.8,10.3,1.1,-6.7,80,59,36,30.13,29.99,6,2,12,0.00
2013-1-4,38.7,26.4,12.0,24.8,18.5,8.0,86,73,56,29.98,29.82,8,2,15,0.00
2013-1-5,40.5,29.4,19.4,25.0,20.7,15.9,87,71,49,30.25,29.84,9,2,20,0.00
2013-1-6,43.6,30.1,19.8,30.3,24.4,16.3,92,80,58,30.22,29.92,6,2,15,0.00
2013-1-7,39.4,28.7,16.8,28.5,21.7,13.9,92,76,49,30.38,29.95,6,2,12,0.00
2013-1-8,45.4,30.7,15.0,31.0,24.2,12.3,90,78,55,30.36,30.26,7,2,15,0.00
2013-1-9,45.6,33.5,19.7,35.5,27.5,17.2,98,79,55,30.38,29.99,7,2,16,0.00
2013-1-10,45.4,38.7,28.5,29.9,25.7,22.8,80,60,46,30.51,30.05,14,5,25,0.00
2013-1-11,37.4,31.3,23.1,32.9,26.6,20.1,90,83,68,30.51,30.19,2,0,5,0.01
2013-1-12,41.7,38.0,35.1,39.5,35.8,32.6,92,91,90,30.21,30.10,1,0,3,0.03
2013-1-13,51.0,45.2,38.8,48.8,43.0,36.7,93,92,91,30.14,29.98,5,2,12,0.00
2013-1-14,60.2,49.5,39.0,51.1,41.7,28.6,91,76,46,30.23,29.86,7,4,17,0.00
2013-1-15,39.7,35.2,29.7,31.4,26.7,24.8,86,72,58,30.30,30.19,4,1,6,0.00
2013-1-16,32.5,31.2,28.8,30.0,27.6,23.6,91,87,70,30.23,29.80,3,0,6,0.13
2013-1-17,40.2,33.0,26.5,32.7,26.2,15.5,91,77,56,30.07,29.82,8,2,17,0.00
2013-1-18,28.9,21.3,16.5,17.1,5.6,-1.6,65,51,37,30.44,30.02,9,3,18,0.00
2013-1-19,47.3,35.6,17.1,32.5,23.9,7.0,79,63,46,30.36,29.88,9,4,20,0.00
2013-1-20,52.4,40.0,26.9,33.5,26.8,11.1,77,60,39,29.91,29.53,12,6,24,0.00
2013-1-21,27.2,23.1,17.7,19.0,11.9,6.7,88,63,45,30.08,29.77,7,2,14,0.02
2013-1-22,22.9,17.9,9.4,18.2,7.0,-1.3,89,64,40,30.07,29.74,10,4,22,0.00
2013-1-23,15.1,8.9,4.2,1.1,-4.5,-8.1,70,54,41,30.14,30.05,9,4,20,0.00
2013-1-24,18.7,9.1,-0.7,-2.3,-6.1,-8.7,74,51,36,30.23,30.07,10,4,23,0.00
2013-1-25,22.4,14.0,6.0,8.4,-3.6,-7.9,70,45,32,30.31,30.07,7,3,14,0.00
2013-1-29,32.1,31.9,31.7,29.7,27.3,-99.9,91,89,90,30.18,30.12,1,0,3,0.00
2013-1-30,59.0,47.4,31.9,56.1,44.9,29.3,93,91,89,30.14,29.43,10,4,25,0.02
2013-1-31,59.8,46.5,29.6,56.9,37.6,17.1,90,72,48,29.57,28.95,16,8,38,0.11
2013-2-1,31.5,26.5,19.7,19.3,11.6,5.4,68,53,40,30.08,29.57,9,5,17,0.00
2013-2-2,31.4,22.8,14.1,14.4,8.9,3.4,68,55,42,30.24,30.03,7,3,13,0.00
2013-2-3,26.3,24.1,20.9,20.6,19.3,14.6,88,82,69,30.04,29.71,4,1,6,0.00
2013-2-4,29.0,22.1,17.7,18.8,12.1,8.7,89,66,45,29.93,29.71,9,4,22,0.00
2013-2-5,26.3,22.9,19.5,20.1,15.1,9.1,88,72,62,30.01,29.91,4,1,8,0.00
2013-2-6,37.9,28.4,21.6,25.5,18.5,6.5,90,69,45,30.28,29.90,9,3,16,0.01
2013-2-7,31.7,22.7,13.5,12.2,7.9,5.8,77,54,38,30.51,30.28,4,1,8,0.00
2013-2-8,31.5,26.2,16.7,28.8,22.0,11.7,90,84,62,30.47,29.56,10,3,22,0.10
2013-2-9,21.5,17.9,12.5,19.0,15.3,8.9,90,89,86,30.19,29.53,10,6,23,0.02
2013-2-10,37.1,19.0,1.6,21.7,11.5,-1.9,94,74,41,30.38,30.19,6,2,12,0.01
2013-2-11,44.5,31.3,9.9,42.0,28.0,5.5,96,87,79,30.34,29.59,7,1,12,0.01
2013-2-12,42.7,37.3,29.9,38.5,29.0,24.1,92,72,58,29.88,29.60,11,5,23,0.00
2013-2-13,42.7,31.7,19.0,27.2,23.4,16.0,89,72,53,29.85,29.67,5,1,9,0.00
2013-2-14,46.5,34.4,25.9,26.3,23.4,20.0,85,65,42,29.98,29.69,5,2,10,0.00
2013-2-15,51.8,36.1,21.8,36.4,28.8,18.8,92,76,54,29.98,29.89,7,2,17,0.00
2013-2-16,36.1,32.5,27.9,30.0,26.6,18.5,90,79,60,29.93,29.66,5,2,11,0.00
2013-2-17,28.3,20.3,14.8,20.6,10.5,1.1,88,67,44,29.69,29.39,14,8,32,0.00
2013-2-18,30.0,20.5,12.5,6.3,2.7,0.2,58,46,32,30.16,29.69,12,7,19,0.00
2013-2-19,47.6,33.4,15.5,39.8,23.8,3.8,90,69,49,30.17,29.57,8,2,18,0.02
2013-2-20,39.4,30.6,24.0,36.7,19.4,10.9,90,64,43,29.77,29.52,11,6,21,0.00
2013-2-21,32.5,26.3,22.2,15.9,14.3,12.4,72,60,49,30.19,29.75,11,6,21,0.00
2013-2-22,40.2,29.9,18.8,24.0,20.4,14.4,84,68,48,30.36,30.19,6,2,11,0.00
2013-2-23,36.9,32.2,26.9,30.7,27.4,22.4,90,82,73,30.32,29.88,4,1,8,0.15
2013-2-24,34.2,32.6,30.7,31.6,30.0,28.1,90,90,90,29.87,29.67,5,2,10,0.77
2013-2-25,37.2,32.5,26.1,32.2,29.1,23.6,91,87,76,30.23,29.87,4,1,7,0.06
2013-2-26,44.5,35.9,31.0,34.4,29.0,26.1,91,77,55,30.32,30.12,4,1,9,0.00
2013-2-27,40.8,37.5,33.9,38.1,34.8,29.8,91,90,83,30.12,29.56,8,4,13,1.43
2013-2-28,45.4,36.0,30.2,39.6,32.9,27.6,91,88,76,29.62,29.51,3,1,6,0.00
2013-3-1,41.9,36.3,29.2,32.7,29.3,26.1,91,76,63,29.66,29.51,7,3,11,0.00
2013-3-2,39.7,35.3,31.9,29.7,27.0,25.3,77,72,63,29.66,29.60,7,3,11,0.00
2013-3-3,41.2,33.6,30.3,30.3,26.9,23.8,89,77,64,29.63,29.54,5,3,13,0.00
2013-3-4,39.5,32.7,26.6,26.0,23.3,19.3,79,68,56,29.73,29.58,11,6,21,0.00
2013-3-5,44.7,34.9,29.1,30.8,26.5,21.8,95,72,57,30.05,29.73,6,3,15,0.00
2013-3-6,38.7,35.1,32.8,34.0,31.4,29.7,90,87,75,30.07,30.01,9,4,17,0.11
2013-3-7,33.9,31.0,28.9,30.7,27.9,26.2,95,88,80,30.02,29.96,9,5,18,0.17
2013-3-8,37.0,30.7,28.4,31.3,27.5,24.2,91,88,63,30.12,29.91,7,4,12,0.65
2013-3-13,46.8,37.2,28.4,27.2,24.6,22.8,82,62,42,29.77,29.70,8,2,18,0.00
2013-3-14,33.7,28.8,21.2,24.6,16.2,7.5,84,60,46,29.83,29.70,10,5,23,0.00
2013-3-15,41.4,29.4,18.7,28.1,15.7,8.4,85,58,33,29.86,29.63,8,4,15,0.00
2013-3-16,41.1,32.8,25.8,27.4,18.0,12.4,85,56,36,29.85,29.66,5,2,11,0.00
2013-3-17,37.8,29.3,20.9,19.7,13.7,7.7,81,54,32,30.29,29.84,10,3,16,0.00
2013-3-18,38.8,27.5,14.8,24.8,11.0,2.4,86,52,28,30.44,30.20,6,2,10,0.00
2013-3-19,35.1,31.1,27.5,32.5,28.4,24.4,90,90,85,30.20,29.59,6,3,13,0.91
2013-3-20,38.7,30.2,24.2,25.5,21.2,18.4,90,71,49,29.80,29.68,10,4,20,0.14
2013-3-21,35.5,27.9,21.1,27.1,22.1,17.0,89,79,55,29.81,29.60,4,1,7,0.07
2013-3-22,40.4,31.7,24.5,23.9,19.9,15.7,89,62,45,29.74,29.60,9,5,18,0.03
2013-3-23,41.5,33.9,26.7,23.5,21.0,18.9,79,60,43,29.79,29.65,12,6,25,0.00
2013-3-24,46.6,36.9,29.7,27.7,23.9,19.6,81,60,45,29.82,29.70,8,3,15,0.00
2013-3-25,43.9,35.7,29.2,32.8,28.3,24.3,86,75,56,29.76,29.49,7,3,17,0.00
2013-3-26,47.4,38.8,31.2,30.7,26.6,23.1,79,62,43,29.77,29.51,7,3,14,0.00
2013-3-27,51.7,39.8,25.8,30.6,25.7,20.9,84,59,38,29.86,29.74,8,4,16,0.00
2013-3-28,48.4,41.2,34.8,34.8,32.7,29.8,89,73,51,30.00,29.85,6,2,16,0.02
2013-3-29,57.0,44.0,30.3,35.9,31.7,27.4,89,64,39,30.03,29.94,7,3,13,0.00
2013-3-30,56.1,44.7,32.2,32.6,27.4,21.6,85,54,27,30.08,29.98,8,3,16,0.00
2013-3-31,60.4,43.1,26.0,40.5,29.4,21.5,88,63,30,30.10,29.69,9,3,16,0.06
2013-4-1,62.3,45.8,32.9,45.6,36.7,15.2,90,72,43,29.78,29.49,13,5,26,0.17
2013-4-2,40.4,32.8,26.0,19.8,15.9,12.6,68,50,36,29.95,29.78,12,6,24,0.00
2013-4-3,44.1,35.1,28.7,17.8,16.3,14.2,59,47,32,30.15,29.93,12,7,24,0.00
2013-4-4,56.7,40.4,26.9,27.8,20.3,15.8,69,47,25,30.29,30.04,7,4,15,0.00
2013-4-5,60.2,45.1,35.9,34.0,28.7,24.5,75,55,27,30.05,29.61,9,4,17,0.00
2013-4-6,45.0,36.4,27.8,26.9,15.7,9.3,65,45,24,30.32,29.83,9,4,19,0.00
2013-4-7,55.7,40.7,23.8,40.5,28.7,16.0,84,64,36,30.32,29.99,11,4,21,0.00
2013-4-8,66.2,52.6,41.9,44.1,41.3,38.7,89,68,40,30.06,29.94,6,2,12,0.00
2013-4-9,72.2,57.2,46.2,53.9,45.3,39.9,89,67,43,30.06,29.83,10,4,21,0.00
2013-4-10,66.4,53.4,43.6,52.0,46.1,40.6,90,77,57,29.98,29.82,6,2,10,0.19
2013-4-11,54.9,46.8,38.3,44.2,39.2,27.4,90,76,47,30.12,29.80,5,2,10,0.05
2013-4-12,38.9,37.4,36.2,34.9,33.9,31.4,90,87,75,30.13,29.75,7,3,13,0.53
2013-4-13,54.4,43.2,34.4,39.5,35.5,31.8,90,76,52,29.91,29.73,6,3,13,0.03
2013-4-14,51.5,42.9,32.4,39.4,32.7,27.1,89,69,45,30.20,29.90,9,3,16,0.00
2013-4-15,60.2,44.4,29.1,38.2,32.6,25.7,89,66,41,30.37,30.20,6,2,12,0.00
2013-4-16,66.3,50.7,33.5,50.6,42.0,30.6,90,74,48,30.39,30.06,10,4,23,0.00
2013-4-17,67.0,57.4,43.9,51.7,40.3,32.2,88,56,31,30.31,30.05,7,4,15,0.00
2013-4-18,64.1,50.1,35.3,44.9,36.2,31.0,87,62,36,30.39,30.13,10,4,17,0.00
2013-4-19,73.3,61.4,50.5,62.2,56.4,44.9,92,84,66,30.13,29.64,11,5,32,0.00
2013-4-20,64.2,52.8,41.8,60.8,41.7,24.9,90,68,43,30.20,29.58,10,5,23,0.73
2013-4-21,53.0,42.2,32.2,31.7,24.9,20.7,82,52,33,30.66,30.21,8,3,14,0.00
2013-4-22,53.7,41.4,29.8,36.0,31.2,27.0,89,69,41,30.72,30.57,7,3,14,0.00
2013-4-23,40.9,39.1,36.8,38.2,35.5,30.8,90,87,76,30.57,30.10,6,3,11,0.02
2013-4-24,76.6,54.8,39.8,53.1,44.1,37.1,95,72,31,30.09,29.79,8,4,15,0.01
2013-4-25,64.8,53.4,40.3,50.7,38.5,28.1,89,61,30,30.25,29.82,9,4,19,0.04
2013-4-26,64.5,48.4,34.9,43.2,36.4,28.9,87,65,40,30.41,30.25,5,2,8,0.00
2013-4-27,68.1,49.6,32.5,42.9,37.1,29.6,90,66,34,30.40,30.27,6,2,14,0.00
2013-4-28,72.9,53.4,34.4,44.3,37.0,28.8,89,58,33,30.33,30.20,6,2,14,0.00
2013-4-29,70.7,56.1,42.7,47.2,39.0,27.0,92,57,33,30.26,30.17,7,2,14,0.00
2013-4-30,75.0,56.8,40.1,37.4,32.9,28.6,79,44,24,30.34,30.23,5,2,9,0.00
2013-5-1,73.5,54.5,33.5,44.7,37.1,29.8,87,56,32,30.44,30.33,4,1,9,0.00
2013-5-2,78.5,57.4,39.0,48.9,42.7,36.0,89,64,31,30.46,30.30,5,1,11,0.00
2013-5-3,63.0,51.3,40.9,47.0,41.5,37.0,87,70,54,30.49,30.36,5,2,11,0.00
2013-5-4,63.4,48.8,36.0,47.7,37.8,28.1,90,69,31,30.36,30.27,5,2,10,0.00
2013-5-5,67.1,48.6,33.5,46.2,39.0,30.6,90,72,46,30.31,30.21,4,2,8,0.00
2013-5-6,77.1,54.9,34.2,54.3,44.3,31.3,90,71,39,30.27,30.11,5,2,9,0.00
2013-5-7,79.8,61.5,41.2,60.7,51.8,38.2,90,73,48,30.16,30.06,6,2,12,0.00
2013-5-8,71.9,61.5,52.6,64.3,57.1,49.3,92,86,69,30.16,30.01,6,2,10,0.09
2013-5-9,68.8,59.8,55.8,62.6,56.6,52.9,92,89,79,30.01,29.85,3,0,6,0.30
2013-5-10,81.5,66.4,52.2,61.3,55.6,49.3,91,71,44,29.93,29.86,4,2,9,0.01
2013-5-11,69.2,62.3,57.0,62.8,57.7,53.5,89,85,74,29.90,29.67,9,3,17,0.07
2013-5-12,71.3,59.8,47.2,57.5,50.9,33.8,90,74,48,29.80,29.55,8,2,16,0.09
2013-5-13,59.6,47.7,36.4,37.2,32.9,29.5,85,58,37,30.01,29.80,6,2,14,0.00
2013-5-14,58.4,47.3,35.6,36.8,33.3,30.9,84,60,39,30.04,29.96,5,2,12,0.00
2013-5-15,65.9,49.6,32.6,51.2,40.7,29.6,89,74,37,30.04,29.66,8,3,16,0.05
2013-5-16,81.5,65.3,49.5,49.5,46.5,42.3,92,56,28,29.77,29.61,8,3,17,0.00
2013-5-17,69.3,57.7,45.9,48.4,43.9,41.0,87,62,40,30.20,29.77,5,2,11,0.00
2013-5-18,71.6,58.1,41.9,50.5,44.8,38.6,89,65,37,30.29,30.20,5,1,10,0.00
2013-5-19,70.8,57.6,45.5,55.1,50.1,42.3,89,77,54,30.32,30.19,5,2,12,0.11
2013-5-20,83.1,67.3,55.0,68.2,60.6,51.8,91,80,58,30.19,29.89,5,2,12,0.02
2013-5-21,90.1,65.9,50.8,71.7,59.6,47.6,91,81,49,29.97,29.80,5,1,15,0.12
2013-5-22,75.9,59.2,49.6,69.3,55.5,46.8,91,88,79,30.02,29.84,4,1,8,0.10
2013-5-23,74.6,65.2,55.1,68.7,61.4,51.9,92,88,81,29.90,29.77,7,3,17,0.27
2013-5-24,69.3,61.8,47.7,65.5,58.6,44.9,90,89,86,29.80,29.63,5,2,12,0.33
2013-5-25,50.2,45.9,39.5,47.2,43.1,36.8,91,90,90,29.79,29.69,3,0,7,0.38
2013-5-26,57.5,47.5,38.0,43.3,39.2,35.2,90,74,53,30.09,29.71,0,0,0,0.02
2013-5-27,72.5,55.4,36.9,47.7,41.0,34.0,90,63,32,30.15,30.05,0,0,0,0.00
2013-5-28,76.2,59.6,41.2,54.2,46.7,38.2,90,66,36,30.21,30.13,0,0,0,0.00
2013-5-29,74.6,63.6,56.8,68.8,59.9,53.6,92,88,79,30.17,29.96,0,0,0,1.08
2013-5-30,87.9,73.8,60.8,72.6,66.3,57.8,92,79,57,30.07,29.98,0,0,0,0.00
2013-5-31,94.1,78.6,62.6,74.0,66.9,59.3,91,70,43,30.07,29.92,0,0,0,0.00
2013-6-1,91.7,78.1,66.4,72.8,67.3,62.1,87,71,49,29.95,29.84,0,0,0,0.00
2013-6-2,88.5,75.7,67.1,71.8,66.7,63.3,88,75,50,29.86,29.71,0,0,0,0.00
2013-6-3,78.5,68.4,61.0,70.0,63.0,48.3,89,83,63,29.83,29.73,0,0,0,0.62
2013-6-4,71.7,60.4,48.7,53.2,46.6,40.4,87,62,46,30.07,29.80,0,0,0,0.00
2013-6-5,76.3,61.1,46.4,55.6,48.9,43.3,89,67,40,30.17,30.07,0,0,0,0.00
2013-6-6,74.8,61.6,49.5,57.1,50.9,44.7,89,69,48,30.17,30.07,0,0,0,0.02
2013-6-7,58.9,55.3,52.8,55.9,52.3,50.2,91,90,88,30.08,29.77,0,0,0,1.82
2013-6-8,77.0,61.7,52.1,66.8,56.4,49.6,91,84,67,29.99,29.59,0,0,0,1.41
2013-6-9,79.0,65.9,54.1,61.7,56.2,50.9,92,73,50,30.14,29.99,0,0,0,0.00
2013-6-10,68.8,60.5,52.8,61.9,56.4,49.6,92,87,74,30.17,29.98,0,0,0,1.01
2013-6-11,63.4,58.4,56.0,59.8,55.4,53.3,92,90,87,29.98,29.55,0,0,0,1.78
2013-6-12,70.6,62.1,56.0,57.6,54.6,52.2,90,77,61,29.79,29.54,0,0,0,0.00
2013-6-13,62.0,54.8,49.4,58.3,51.5,46.3,90,89,84,29.80,29.63,0,0,1,1.09
2013-6-14,72.0,57.9,50.5,61.2,52.9,47.9,92,84,61,29.75,29.60,0,0,0,1.49
2013-6-15,78.8,64.4,51.5,56.6,51.4,47.3,89,66,36,29.92,29.75,0,0,0,0.03
2013-6-16,74.3,64.0,49.4,64.1,55.7,46.0,89,75,57,29.93,29.69,0,0,1,0.00
2013-6-17,85.0,68.9,58.3,67.3,60.3,54.8,89,76,48,29.88,29.75,0,0,1,0.80
2013-6-18,77.0,62.5,58.1,68.5,58.9,55.2,92,88,73,29.91,29.83,0,0,0,1.55
2013-6-19,75.8,62.4,53.4,59.8,54.6,50.5,91,78,50,30.12,29.87,0,0,0,0.11
2013-6-20,79.5,65.0,48.7,58.9,52.9,45.6,90,68,40,30.24,30.13,0,0,0,0.00
2013-6-21,83.1,70.3,58.0,69.5,61.0,53.4,86,73,55,30.24,30.17,0,0,0,0.00
2013-6-22,83.9,71.6,62.6,65.9,60.5,55.0,79,69,51,30.20,30.09,0,0,0,0.00
2013-6-23,88.4,75.4,62.9,76.3,66.2,56.7,85,74,59,30.14,29.98,0,0,0,0.00
2013-6-24,91.4,78.8,67.7,77.1,70.3,64.0,88,77,56,30.01,29.85,0,0,0,0.06
2013-6-25,90.3,77.0,66.4,74.9,68.7,62.7,89,77,55,29.90,29.71,0,0,0,0.01
2013-6-26,86.6,75.9,67.9,74.1,68.9,64.2,89,80,63,29.75,29.70,1,0,1,0.00
2013-7-1,82.3,75.9,71.7,76.0,71.6,68.3,89,87,78,30.05,29.95,0,0,0,0.04
2013-7-2,83.8,75.9,69.3,75.7,71.1,65.6,89,85,73,30.15,30.04,0,0,0,0.00
2013-7-3,86.8,75.7,65.0,76.9,69.9,61.4,89,83,66,30.19,30.11,0,0,0,0.00
2013-7-4,90.8,80.8,71.4,78.5,73.5,67.7,89,79,62,30.18,30.07,0,0,0,0.00
2013-7-5,92.7,82.9,73.2,79.3,74.2,69.4,88,76,58,30.13,30.01,0,0,0,0.00
2013-7-6,90.7,84.2,72.8,77.5,74.2,68.7,88,73,58,30.05,29.94,0,0,0,0.00
2013-7-7,92.0,77.7,69.1,79.3,71.4,65.5,89,82,61,30.00,29.88,4,0,8,0.06
2013-7-8,90.3,77.1,67.7,76.8,70.6,64.0,90,81,56,30.02,29.88,4,1,11,0.01
2013-7-9,74.7,69.4,65.9,70.6,65.8,62.6,89,88,87,30.07,30.00,1,0,3,0.01
2013-7-10,85.2,74.0,66.8,76.7,69.3,63.5,90,86,73,30.04,29.77,7,2,14,0.09
2013-7-11,80.5,74.3,69.0,75.1,70.4,65.3,90,88,80,29.89,29.76,4,1,9,0.23
2013-7-12,75.2,69.2,64.7,67.5,63.2,58.2,89,81,73,30.16,29.89,2,1,7,0.00
2013-7-13,73.6,68.6,64.1,70.2,65.1,60.5,89,89,86,30.28,30.16,1,0,3,0.10
2013-7-14,89.6,78.0,70.6,77.1,72.0,67.2,90,82,63,30.28,30.16,3,1,8,0.00
2013-7-15,91.7,78.9,70.2,80.1,72.7,66.5,89,82,61,30.18,30.07,3,1,6,0.00
2013-7-16,91.4,79.7,67.6,75.7,70.7,64.2,89,75,53,30.13,30.07,3,1,5,0.00
2013-7-17,96.0,81.5,69.1,77.5,71.9,65.4,89,74,48,30.15,29.98,3,1,7,0.00
2013-7-18,96.3,84.0,73.5,77.3,74.3,69.7,88,74,51,29.99,29.89,4,2,7,0.00
2013-7-19,96.0,84.2,73.6,79.8,75.5,69.8,89,76,55,29.92,29.70,7,2,14,0.00
2013-7-20,91.8,82.3,71.3,79.4,75.1,66.9,88,79,58,29.78,29.62,5,2,12,0.00
2013-7-21,89.0,76.1,67.2,72.5,67.4,63.5,89,76,51,29.95,29.78,3,1,5,0.00
2013-7-22,87.4,73.5,63.9,72.3,67.2,60.6,89,82,58,29.97,29.84,4,1,6,0.00
2013-7-23,85.8,72.8,69.0,77.2,69.0,65.3,90,88,73,29.84,29.51,5,1,10,0.77
2013-7-24,82.6,74.4,67.2,72.7,67.5,57.7,91,80,60,29.92,29.55,4,1,10,0.00
2013-7-25,66.9,59.1,57.2,56.8,53.8,50.0,89,83,70,30.07,29.92,3,1,11,0.98
2013-7-26,70.6,63.1,58.2,66.7,59.7,55.0,90,89,87,30.03,29.93,3,1,8,0.50
2013-7-27,83.9,69.9,57.5,69.4,62.8,54.3,92,79,56,30.04,29.97,4,2,9,0.00
2013-7-28,87.1,72.3,63.1,73.8,66.5,59.5,89,83,57,29.99,29.92,3,1,7,0.00
2013-7-29,85.3,72.6,64.0,74.7,67.6,60.4,89,85,68,30.01,29.93,5,1,10,0.25
2013-7-30,82.4,69.0,58.7,66.0,60.3,55.5,90,75,50,30.08,30.00,4,2,9,0.00
2013-7-31,83.8,69.7,58.1,67.2,61.0,54.9,89,76,50,30.11,30.01,3,1,5,0.00
2013-8-1,81.6,68.0,58.2,68.4,61.9,55.0,90,81,60,30.03,29.85,6,2,12,0.00
2013-8-2,81.7,70.9,63.9,69.7,63.5,60.3,89,79,54,29.86,29.77,5,1,11,0.21
2013-8-3,78.1,68.5,61.4,66.3,62.3,58.1,89,81,61,29.85,29.76,4,2,11,0.01
2013-8-4,79.1,65.2,55.7,64.5,57.6,52.5,89,78,50,29.88,29.75,5,2,10,0.15
2013-8-5,74.9,62.1,52.3,56.3,51.3,46.7,92,71,39,30.03,29.88,6,2,14,0.00
2013-8-6,81.8,64.4,47.3,59.2,53.1,44.2,89,70,43,30.12,30.02,3,1,6,0.00
2013-8-7,81.8,66.3,51.7,62.0,56.0,48.6,92,72,42,30.16,30.09,5,2,11,0.00
2013-8-8,79.9,70.9,64.3,73.1,66.2,58.6,89,85,75,30.11,29.99,7,3,11,0.15
2013-8-9,75.1,72.1,70.0,72.0,68.6,66.6,90,89,88,30.00,29.73,6,2,13,1.56
2013-8-10,75.4,67.6,58.0,68.1,62.8,54.1,90,85,59,29.99,29.77,4,1,6,0.01
2013-8-11,78.2,65.2,51.7,63.0,56.1,48.6,92,74,50,30.06,29.98,4,1,10,0.00
2013-8-12,82.0,69.5,58.5,65.1,60.0,55.0,89,74,49,30.01,29.90,4,1,7,0.00
2013-8-13,71.5,64.2,61.3,67.7,60.7,57.7,89,88,88,29.90,29.80,3,0,5,0.00
2013-8-17,61.8,61.6,61.3,58.2,58.0,57.7,88,88,88,30.25,30.24,0,0,2,0.00
2013-8-18,81.3,66.5,56.2,66.2,59.4,53.0,89,79,45,30.25,30.06,4,1,6,0.00
2013-8-19,81.4,68.7,56.9,66.7,60.6,53.7,89,77,51,30.07,29.94,4,2,8,0.00
2013-8-20,86.5,71.9,60.3,68.1,62.8,56.6,89,75,47,30.07,29.96,3,1,8,0.00
2013-8-21,87.6,72.5,59.3,71.2,63.9,55.7,89,76,51,30.12,30.00,3,1,8,0.00
2013-8-22,85.1,73.2,63.8,73.7,67.5,60.2,89,83,64,30.02,29.81,5,2,10,0.00
2013-8-23,79.6,70.9,59.0,67.2,61.7,53.3,89,74,50,30.10,29.80,3,1,9,0.00
2013-8-24,80.5,64.0,52.2,57.4,52.3,48.9,89,68,39,30.32,30.10,2,1,5,0.00
2013-8-25,83.5,66.8,50.5,60.0,54.3,47.4,92,68,39,30.34,30.17,4,2,8,0.00
2013-8-26,78.0,69.9,64.2,68.7,62.7,57.3,88,78,65,30.18,29.85,4,2,10,0.01
2013-8-27,83.1,71.6,64.7,73.7,66.9,61.1,90,85,70,29.87,29.80,2,0,3,0.25
2013-8-28,88.1,72.1,60.2,73.3,64.7,56.9,90,79,54,29.94,29.82,2,0,5,0.00
2013-8-29,66.5,63.6,59.0,63.2,60.2,55.8,89,89,88,30.05,29.92,2,1,5,0.01
2013-8-30,82.0,68.6,59.9,70.9,63.3,56.6,89,84,65,30.01,29.81,4,1,8,0.00
2013-8-31,78.4,73.2,66.9,73.5,69.2,63.2,89,87,83,29.82,29.77,4,2,7,0.00
2013-9-1,76.2,71.7,68.0,72.7,68.2,64.3,90,89,88,29.85,29.76,4,1,8,0.31
2013-9-2,80.2,73.3,69.5,75.0,69.7,66.1,90,88,84,29.83,29.68,6,2,11,0.15
2013-9-3,78.1,70.6,60.6,71.3,66.6,57.3,90,87,77,29.79,29.67,4,1,8,0.04
2013-9-4,78.7,66.1,56.6,62.4,58.0,53.4,90,77,52,29.90,29.78,4,2,11,0.00
2013-9-5,68.5,60.1,47.8,60.5,54.2,44.6,89,82,54,30.12,29.84,2,0,6,0.06
2013-9-6,70.5,54.7,41.7,50.4,44.8,38.7,89,72,43,30.23,30.08,4,1,9,0.00
2013-9-7,78.6,61.8,46.0,58.9,51.2,42.9,89,71,43,30.08,29.84,4,2,9,0.00
2013-9-8,74.3,63.6,47.5,62.9,53.9,42.1,88,72,46,30.07,29.73,5,2,14,0.00
2013-9-9,69.5,55.4,40.6,51.2,45.5,37.6,94,71,45,30.22,30.06,4,2,9,0.00
2013-9-10,74.4,65.0,53.1,69.8,61.1,49.3,89,87,85,30.14,30.01,5,2,9,0.05
2013-9-11,95.3,79.6,67.7,77.9,71.9,64.0,89,79,53,30.05,29.92,5,2,10,0.00
2013-9-12,87.2,75.9,67.3,75.7,69.9,63.6,88,82,65,29.95,29.65,7,3,14,0.53
2013-9-13,79.1,67.8,59.0,70.4,62.9,54.8,89,85,66,29.74,29.54,3,1,9,0.11
2013-9-14,65.8,58.5,49.6,55.5,52.6,46.2,89,81,66,30.04,29.73,3,1,9,0.00
2013-9-15,64.9,50.0,46.1,53.8,46.2,43.0,90,87,65,30.15,30.04,2,1,4,0.00
2013-9-17,62.9,51.7,38.8,47.1,41.1,35.0,89,69,47,30.41,30.31,3,1,5,0.00
2013-9-18,74.1,54.8,38.3,52.2,45.0,35.3,90,73,41,30.32,30.13,4,1,8,0.00
2013-9-19,81.2,60.9,46.0,59.5,51.3,42.9,89,74,42,30.13,30.01,4,1,6,0.00
2013-9-20,85.1,62.6,46.1,60.7,52.7,43.0,92,73,40,30.07,29.97,4,1,8,0.00
2013-9-21,75.3,63.8,51.4,65.2,58.5,48.0,90,83,64,30.01,29.70,7,3,18,0.00
2013-9-22,69.6,62.6,49.2,65.2,55.8,45.2,89,79,58,29.81,29.58,7,3,13,0.62
2013-9-23,63.4,51.6,43.2,47.8,43.1,39.1,89,74,54,29.99,29.81,4,2,10,0.00
2013-9-24,67.9,51.9,39.5,48.4,42.9,36.4,92,73,45,29.98,29.80,5,2,11,0.00
2013-9-25,71.8,54.9,42.0,55.6,47.6,39.0,92,77,54,29.96,29.85,3,1,9,0.00
2013-9-26,66.3,55.9,48.7,52.5,49.1,45.3,92,79,57,30.10,29.96,2,0,4,0.00
2013-9-27,63.9,56.3,47.4,55.0,50.9,43.9,89,82,70,30.24,30.09,2,1,7,0.00
2013-9-28,74.7,56.1,44.4,59.1,49.6,41.4,90,80,56,30.31,30.23,2,1,9,0.00
2013-9-29,70.6,52.7,40.9,54.9,45.5,37.9,90,79,49,30.25,30.10,3,0,5,0.00
2013-9-30,70.5,54.5,45.6,53.6,48.0,42.5,90,80,53,30.10,29.94,2,0,5,0.00
2013-10-1,79.0,59.8,45.0,59.4,51.1,42.0,92,76,44,29.94,29.83,3,1,7,0.00
2013-10-2,78.7,63.1,51.3,64.0,56.0,47.9,89,79,59,29.94,29.82,6,2,13,0.00
2013-10-3,78.7,59.8,47.4,56.6,50.3,44.3,92,74,37,30.07,29.94,3,1,8,0.00
2013-10-4,62.7,55.0,48.7,57.2,51.4,45.3,92,88,71,30.07,30.01,3,0,6,0.62
2013-10-5,67.5,60.6,55.8,62.2,56.9,52.6,92,88,81,30.10,30.03,2,0,3,0.16
2013-10-6,59.1,56.3,54.6,55.9,53.1,51.4,92,89,88,30.19,30.08,2,0,5,0.40
2013-10-7,74.4,63.8,55.1,67.6,59.2,52.2,90,85,78,30.10,29.80,10,3,18,0.33
2013-10-8,65.9,54.8,43.0,53.2,45.9,38.2,86,73,51,30.35,29.89,5,2,12,0.00
2013-10-9,62.2,49.5,41.5,48.7,42.0,36.6,84,76,54,30.45,30.34,3,1,8,0.00
2013-10-10,62.5,50.9,41.1,54.5,45.3,36.3,84,81,74,30.34,30.15,2,0,5,0.00
2013-10-11,71.0,56.6,49.0,60.0,49.9,44.1,84,79,64,30.15,30.06,2,0,8,0.00
2013-10-12,59.9,53.6,48.1,54.4,48.4,43.2,83,82,80,30.36,30.12,3,1,9,0.00
2013-10-13,58.9,50.5,38.0,50.4,44.7,33.3,84,80,71,30.41,30.34,3,1,7,0.00
2013-10-14,67.5,48.3,33.7,49.8,40.1,29.4,89,75,47,30.39,30.24,3,1,6,0.00
2013-10-15,66.5,54.8,44.9,55.8,48.0,40.0,87,78,63,30.25,30.15,1,0,3,0.00
2013-10-16,59.5,53.2,45.2,52.9,47.8,40.3,84,82,78,30.15,29.89,2,0,5,0.00
2013-10-17,73.0,59.1,48.4,62.1,52.9,43.5,84,80,67,29.90,29.70,6,2,9,0.03
2013-10-18,67.3,58.2,41.3,55.9,49.3,36.5,84,73,52,29.89,29.59,7,3,18,0.02
2013-10-19,66.3,50.9,36.5,47.6,41.1,31.8,84,71,45,29.96,29.73,5,1,12,0.00
2013-10-20,61.6,50.9,36.1,47.2,40.1,31.4,84,68,41,30.01,29.67,7,2,19,0.02
2013-10-21,69.4,49.9,34.4,46.8,39.2,29.8,84,69,42,30.11,29.98,5,2,9,0.00
2013-10-22,66.8,50.7,37.1,52.8,43.3,32.4,84,76,58,29.98,29.69,7,2,11,0.00
2013-10-23,49.7,42.6,33.0,38.2,34.2,28.4,84,73,54,29.78,29.57,3,1,5,0.00
2013-10-24,52.5,42.4,33.5,35.9,30.8,26.9,84,65,41,29.88,29.64,7,2,14,0.00
2013-10-25,48.1,37.4,28.1,34.9,28.3,23.3,84,71,49,30.15,29.88,7,2,13,0.00
2013-10-26,53.1,33.9,26.9,35.0,26.5,22.4,84,76,43,30.16,30.01,7,2,14,0.00
2013-10-27,55.1,45.5,32.0,39.1,33.1,26.8,81,63,47,30.06,29.85,7,3,15,0.01
2013-10-28,58.9,41.6,27.1,38.8,30.7,22.6,84,67,45,30.34,30.06,7,2,17,0.00
2013-10-29,50.2,35.6,26.7,29.2,24.3,21.1,81,65,40,30.43,30.33,3,1,8,0.00
2013-10-30,55.2,39.0,26.7,43.1,32.6,21.4,83,78,62,30.36,30.17,4,1,8,0.00
2013-10-31,61.4,46.7,30.1,56.1,41.7,25.6,84,83,80,30.23,29.78,6,2,14,0.06
2013-11-1,68.4,62.6,57.4,61.2,56.3,51.9,83,80,70,29.78,29.44,11,5,27,0.17
2013-11-2,68.1,53.9,41.8,51.9,44.2,36.8,84,71,42,29.70,29.57,5,1,10,0.00
2013-11-3,49.5,41.1,30.9,44.2,29.7,18.0,82,65,37,30.40,29.69,4,2,7,0.00
2013-11-4,42.9,31.5,22.6,21.1,18.2,16.2,81,59,39,30.69,30.40,4,1,9,0.00
2013-11-5,53.7,35.9,22.0,33.3,26.6,17.3,84,70,45,30.70,30.50,4,1,10,0.00
2013-11-6,61.4,46.8,35.2,45.9,38.4,30.0,83,74,54,30.51,30.16,7,2,14,0.00
2013-11-13,35.9,28.3,20.7,18.3,15.6,13.2,77,59,45,30.28,30.16,7,3,13,0.00
2013-11-14,51.2,37.5,27.0,28.5,22.2,16.7,69,55,40,30.17,30.04,8,3,17,0.00
2013-11-15,61.4,43.6,29.7,33.9,25.9,19.2,78,52,26,30.19,30.10,6,2,12,0.00
2013-11-16,61.4,43.3,30.9,39.4,30.3,25.7,83,63,33,30.30,30.17,4,1,7,0.00
2013-11-17,57.1,45.7,30.8,51.8,40.3,26.2,85,81,74,30.29,29.82,3,1,7,0.04
2013-11-18,66.0,57.3,47.0,56.4,47.2,32.9,84,70,49,29.81,29.52,8,4,20,0.27
2013-11-19,46.9,38.6,29.9,33.6,24.1,18.1,66,56,46,30.26,29.63,11,6,22,0.00
2013-11-20,40.5,29.8,19.9,18.4,16.2,14.7,80,58,35,30.61,30.26,7,3,11,0.00
2013-11-21,49.9,31.7,18.1,33.2,21.5,13.8,83,68,39,30.62,30.37,5,1,10,0.00
2013-11-22,48.0,43.8,40.2,42.8,38.4,33.2,83,81,76,30.37,29.81,3,1,6,0.12
2013-11-23,46.7,39.0,27.8,42.1,26.9,16.1,84,62,41,29.90,29.77,10,6,23,0.00
2013-11-24,27.7,22.4,18.8,17.1,6.5,-1.3,75,51,31,30.20,29.79,14,9,31,0.00
2013-11-25,33.1,23.3,14.7,19.0,6.4,-0.7,66,49,30,30.37,30.19,9,4,16,0.00
2013-11-26,39.8,34.6,29.4,30.8,23.1,17.1,88,63,47,30.32,30.01,6,2,12,0.17
2013-11-27,61.0,49.2,35.1,55.5,44.2,30.2,84,83,82,30.01,29.20,12,5,34,1.93
2013-11-28,35.6,28.6,21.7,30.1,17.0,10.0,82,62,44,30.43,29.46,11,6,19,0.00
2013-11-29,34.3,25.7,18.6,17.2,13.3,5.9,80,60,46,30.73,30.43,7,2,13,0.00
2013-11-30,34.4,23.4,13.6,21.6,14.3,7.6,80,68,52,30.78,30.41,4,1,9,0.00
2013-12-1,36.2,32.4,27.7,31.4,27.5,21.4,84,82,77,30.41,29.99,3,1,5,0.13
2013-12-2,38.6,35.8,31.8,34.2,31.4,27.5,84,84,83,30.00,29.90,3,1,5,0.00
2013-12-3,49.0,36.8,27.4,38.4,31.0,23.0,85,80,60,29.94,29.83,6,2,8,0.00
2013-12-4,45.1,32.0,25.5,32.8,25.8,21.3,89,78,58,30.18,29.94,4,1,7,0.01
2013-12-5,54.6,40.4,27.6,49.7,35.6,23.1,84,83,80,30.19,29.89,7,1,13,0.00
2013-12-6,56.2,48.1,33.4,50.8,42.7,28.8,83,81,75,30.10,29.84,5,3,10,0.36
2013-12-7,37.4,31.4,23.9,30.2,25.9,19.8,84,80,68,30.44,30.04,8,2,12,0.17
2013-12-8,29.4,26.0,17.8,20.4,17.6,13.7,84,71,58,30.58,30.43,3,1,5,0.00
2013-12-9,35.2,30.2,24.7,30.9,25.4,18.4,89,82,70,30.48,29.88,5,1,8,0.26
2013-12-10,31.9,28.3,18.9,27.6,23.9,14.9,85,84,81,30.00,29.76,3,1,8,0.00
2013-12-11,28.6,21.8,14.7,22.5,17.0,10.8,92,81,77,30.21,30.00,6,2,10,0.00
2013-12-12,23.0,17.2,7.1,16.3,8.9,2.5,92,71,48,30.27,30.06,8,3,14,0.00
2013-12-13,28.3,20.1,12.8,18.7,11.8,6.4,81,70,57,30.37,29.99,8,3,13,0.00
2013-12-14,22.5,13.4,9.9,18.0,5.4,-2.2,84,71,51,30.58,30.11,4,2,8,0.19
2013-12-15,33.0,25.4,17.0,28.4,21.1,13.0,92,84,82,30.11,29.42,7,3,13,0.81
2013-12-16,27.2,20.3,8.6,17.3,11.5,3.6,92,69,52,30.20,29.74,11,4,20,0.00
2013-12-17,18.1,9.1,-1.9,14.0,4.7,-6.3,92,82,75,30.27,29.94,4,2,8,0.16
2013-12-18,32.5,23.6,15.5,22.3,17.7,11.3,84,78,63,30.08,29.86,9,3,20,0.31
2013-12-19,42.6,29.9,20.8,28.5,22.8,16.0,83,75,55,30.11,29.94,7,2,15,0.01
2013-12-20,53.2,38.6,28.0,37.7,30.8,23.4,83,74,53,30.10,29.90,5,2,9,0.00
2013-12-21,57.7,48.2,41.1,49.0,41.7,34.6,83,78,71,29.95,29.84,5,3,10,0.00
2013-12-22,64.7,50.0,35.8,58.7,44.5,31.1,83,82,71,29.99,29.74,7,3,14,0.00
2013-12-23,38.4,34.2,31.9,34.0,29.8,27.6,84,84,83,30.07,29.94,5,1,9,0.70
2013-12-24,37.4,31.5,25.2,33.0,22.9,12.9,84,71,54,30.19,30.03,7,3,13,0.00
2013-12-25,25.1,18.2,14.4,13.5,6.9,2.7,72,61,51,30.47,30.19,11,5,17,0.00
2013-12-29,41.1,38.0,35.5,35.2,32.7,30.5,83,81,73,29.94,29.38,7,3,14,1.30
2013-12-30,37.9,30.1,17.9,32.3,21.0,10.0,83,70,49,30.14,29.51,12,4,21,0.01
2013-12-31,26.2,18.3,12.7,13.5,9.0,2.0,81,67,51,30.18,30.00,8,2,14,0.00
2014-1-1,27.0,19.9,13.8,12.9,9.3,5.8,78,64,50,30.36,30.18,7,2,13,0.00
2014-1-2,20.0,11.9,0.7,14.2,7.2,-3.9,90,81,71,30.34,29.81,7,3,16,0.06